Location: Newark
(41.6500°N, 71.4833°W)
Time: 05:22:55
(UTC+00:00)

Transit 4A - Visible Passes

Search period start: 22 January 2020 00:00
Search period end: 01 February 2020 00:00
Orbit: 871 x 973 km, 66.8° (Epoch: 21 January)

Date Brightness Start Highest point End Pass type
(mag) Time Alt. Az. Time Alt. Az. Time Alt. Az.
22 Jan 10.1 10:47:58 10° SSE 10:53:02 28° ESE 10:58:02 10° NE visible
23 Jan 9.2 10:56:31 10° S 11:02:11 43° ESE 11:07:45 10° NE visible
24 Jan 8.4 11:05:26 10° SSW 11:11:25 64° ESE 11:17:16 10° NE visible
25 Jan 10.8 09:32:13 10° SE 09:35:10 14° ESE 09:38:05 10° ENE visible
25 Jan 7.9 11:14:38 10° SSW 11:20:42 88° WNW 11:26:39 10° NNE visible
26 Jan 10.2 09:39:44 10° SSE 09:44:12 22° ESE 09:48:37 10° ENE visible
26 Jan 7.9 11:24:07 10° SW 11:30:04 61° WNW 11:35:56 10° NNE visible
27 Jan 9.5 09:48:00 10° S 09:53:19 33° ESE 09:58:32 10° NE visible
28 Jan 8.7 09:56:43 10° S 10:02:29 49° ESE 10:08:10 10° NE visible
29 Jan 8.0 10:05:44 10° SSW 10:11:45 74° ESE 10:17:39 10° NNE visible
30 Jan 10.3 08:31:48 10° SE 08:35:24 17° ESE 08:38:58 10° ENE visible
30 Jan 7.7 10:15:01 10° SW 10:21:03 77° WNW 10:26:59 10° NNE visible
31 Jan 9.7 08:41:56 19° SE 08:44:28 25° ESE 08:49:12 10° NE visible
31 Jan 7.9 10:25:35 15° SW 10:30:28 53° NW 10:36:14 10° NNE visible
